• In Portugal
  • List of Countries
  • For 7 days
  • Water Temperature
  • Satellite Maps
  • Weather Map
  • Weather Widgets
  • user-avatar
    Login

    Hourly Weather Tottori

    Today, 25 September, Tuesday

    Time Temperature Precipitation Wind Pressure Humidity
    00:00 +19°C° 0.8 mm 2 mps 731 mmHg 93%
    01:00 +19°C° 0.8 mm 2 mps 731 mmHg 94%
    02:00 +19°C° 0.8 mm 2 mps 731 mmHg 94%
    03:00 +20°C° 0 mm 1 mps 731 mmHg 94%
    04:00 +19°C° 0.7 mm 1 mps 731 mmHg 94%
    05:00 +19°C° 0.7 mm 1 mps 731 mmHg 94%
    06:00 +19°C° 0.7 mm 1 mps 731 mmHg 94%
    07:00 +20°C° 0.2 mm 1 mps 731 mmHg 92%
    08:00 +20°C° 0.2 mm 1 mps 731 mmHg 89%
    09:00 +21°C° 0.2 mm 1 mps 731 mmHg 86%
    10:00 +21°C° 0.2 mm 2 mps 731 mmHg 82%
    11:00 +23°C° 0.2 mm 2 mps 731 mmHg 77%
    12:00 +24°C° 0.2 mm 3 mps 731 mmHg 73%
    13:00 +24°C° 0.2 mm 3 mps 731 mmHg 73%
    14:00 +22°C° 0.2 mm 3 mps 731 mmHg 74%
    15:00 +22°C° 0.2 mm 4 mps 730 mmHg 74%
    16:00 +21°C° 0.1 mm 4 mps 731 mmHg 79%
    17:00 +20°C° 0.1 mm 4 mps 731 mmHg 83%
    18:00 +19°C° 0.1 mm 4 mps 731 mmHg 87%
    19:00 +18°C° 0.1 mm 4 mps 731 mmHg 89%
    20:00 +18°C° 0.1 mm 4 mps 731 mmHg 90%
    21:00 +17°C° 0.1 mm 4 mps 731 mmHg 92%
    22:00 +17°C° 0.1 mm 4 mps 731 mmHg 92%
    23:00 +17°C° 0.1 mm 4 mps 732 mmHg 92%

    Tomorrow, 26 September, Wednesday

    Time Temperature Precipitation Wind Pressure Humidity
    00:00 +17°C° 0.1 mm 4 mps 732 mmHg 92%
    01:00 +17°C° 0.1 mm 4 mps 731 mmHg 92%
    02:00 +15°C° 0.1 mm 4 mps 731 mmHg 92%
    03:00 +15°C° 0.1 mm 4 mps 731 mmHg 92%
    04:00 +15°C° 0.1 mm 4 mps 731 mmHg 92%
    05:00 +15°C° 0.1 mm 4 mps 731 mmHg 93%
    06:00 +15°C° 0.1 mm 4 mps 731 mmHg 93%
    07:00 +17°C° 0 mm 4 mps 731 mmHg 88%
    08:00 +18°C° 0 mm 4 mps 732 mmHg 83%
    09:00 +20°C° 0 mm 4 mps 732 mmHg 78%
    10:00 +21°C° 0 mm 5 mps 732 mmHg 74%
    11:00 +21°C° 0 mm 5 mps 731 mmHg 71%
    12:00 +22°C° 0 mm 5 mps 731 mmHg 67%
    13:00 +22°C° 0 mm 5 mps 731 mmHg 68%
    14:00 +22°C° 0 mm 4 mps 730 mmHg 69%
    15:00 +21°C° 0 mm 4 mps 730 mmHg 71%
    16:00 +20°C° 0 mm 4 mps 730 mmHg 75%
    17:00 +19°C° 0 mm 4 mps 730 mmHg 79%
    18:00 +18°C° 0 mm 4 mps 730 mmHg 83%
    19:00 +18°C° 0.4 mm 4 mps 730 mmHg 86%
    20:00 +18°C° 0.4 mm 3 mps 730 mmHg 89%
    21:00 +17°C° 0.4 mm 3 mps 730 mmHg 92%
    22:00 +17°C° 0.7 mm 3 mps 730 mmHg 93%
    23:00 +17°C° 0.7 mm 3 mps 730 mmHg 94%

    Day after tomorrow, 27 September, Thursday

    Time Temperature Precipitation Wind Pressure Humidity
    00:00 +17°C° 0.7 mm 3 mps 729 mmHg 94%
    01:00 +17°C° 0.4 mm 3 mps 729 mmHg 94%
    02:00 +17°C° 0.4 mm 3 mps 729 mmHg 95%
    03:00 +17°C° 0.4 mm 2 mps 729 mmHg 95%
    04:00 +17°C° 0.6 mm 2 mps 729 mmHg 95%
    05:00 +17°C° 0.6 mm 2 mps 729 mmHg 95%
    06:00 +17°C° 0.6 mm 2 mps 729 mmHg 95%
    07:00 +17°C° 0.2 mm 2 mps 729 mmHg 94%
    08:00 +18°C° 0.2 mm 1 mps 729 mmHg 92%
    09:00 +19°C° 0.2 mm 1 mps 729 mmHg 91%
    10:00 +19°C° 0 mm 2 mps 729 mmHg 83%
    11:00 +20°C° 0 mm 2 mps 729 mmHg 75%
    12:00 +23°C° 0 mm 2 mps 729 mmHg 66%
    13:00 +23°C° 0 mm 2 mps 729 mmHg 65%
    14:00 +22°C° 0 mm 3 mps 729 mmHg 63%
    15:00 +24°C° 0 mm 3 mps 728 mmHg 62%
    16:00 +21°C° 0 mm 2 mps 729 mmHg 69%
    17:00 +19°C° 0 mm 2 mps 729 mmHg 76%
    18:00 +18°C° 0 mm 2 mps 729 mmHg 83%
    19:00 +17°C° 0 mm 2 mps 729 mmHg 85%
    20:00 +18°C° 0 mm 1 mps 730 mmHg 88%
    21:00 +16°C° 0 mm 1 mps 730 mmHg 91%
    22:00 +16°C° 0 mm 1 mps 730 mmHg 92%
    23:00 +15°C° 0 mm 1 mps 730 mmHg 93%

    28 September, Friday

    Time Temperature Precipitation Wind Pressure Humidity
    00:00 +15°C° 0 mm 1 mps 730 mmHg 94%
    01:00 +15°C° 0 mm 1 mps 730 mmHg 94%
    02:00 +15°C° 0 mm 1 mps 730 mmHg 94%
    03:00 +15°C° 0 mm 1 mps 730 mmHg 95%
    04:00 +15°C° 0 mm 1 mps 730 mmHg 95%
    05:00 +15°C° 0 mm 2 mps 730 mmHg 95%
    06:00 +14°C° 0 mm 2 mps 731 mmHg 94%
    07:00 +17°C° 0 mm 2 mps 731 mmHg 86%
    08:00 +19°C° 0 mm 2 mps 731 mmHg 78%
    09:00 +21°C° 0 mm 2 mps 732 mmHg 70%
    10:00 +23°C° 0 mm 2 mps 732 mmHg 64%
    11:00 +25°C° 0 mm 2 mps 732 mmHg 58%
    12:00 +26°C° 0 mm 2 mps 732 mmHg 52%
    13:00 +26°C° 0 mm 3 mps 731 mmHg 53%
    14:00 +26°C° 0 mm 3 mps 731 mmHg 53%
    15:00 +26°C° 0 mm 3 mps 731 mmHg 54%
    16:00 +24°C° 0 mm 3 mps 731 mmHg 62%
    17:00 +21°C° 0 mm 3 mps 731 mmHg 70%
    18:00 +19°C° 0 mm 2 mps 731 mmHg 78%
    19:00 +18°C° 0 mm 2 mps 731 mmHg 82%
    20:00 +17°C° 0 mm 2 mps 732 mmHg 85%
    21:00 +16°C° 0 mm 2 mps 732 mmHg 88%
    22:00 +16°C° 0 mm 2 mps 732 mmHg 88%
    23:00 +16°C° 0 mm 2 mps 731 mmHg 88%

    29 September, Saturday

    Time Temperature Precipitation Wind Pressure Humidity
    00:00 +16°C° 0 mm 2 mps 731 mmHg 88%
    01:00 +16°C° 0 mm 2 mps 731 mmHg 85%
    02:00 +16°C° 0 mm 2 mps 731 mmHg 82%
    03:00 +16°C° 0 mm 2 mps 731 mmHg 80%
    04:00 +16°C° 0 mm 2 mps 731 mmHg 78%
    05:00 +18°C° 0 mm 1 mps 731 mmHg 75%
    06:00 +18°C° 0 mm 1 mps 731 mmHg 73%
    07:00 +18°C° 0.9 mm 1 mps 731 mmHg 79%
    08:00 +18°C° 0.9 mm 1 mps 731 mmHg 84%
    09:00 +17°C° 0.9 mm 2 mps 731 mmHg 89%
    10:00 +17°C° 2.6 mm 2 mps 730 mmHg 91%
    11:00 +17°C° 2.6 mm 2 mps 730 mmHg 93%
    12:00 +17°C° 2.6 mm 2 mps 730 mmHg 95%
    13:00 +17°C° 4 mm 2 mps 729 mmHg 95%
    14:00 +18°C° 4 mm 2 mps 728 mmHg 96%
    15:00 +18°C° 4 mm 2 mps 728 mmHg 96%
    16:00 +18°C° 6 mm 2 mps 728 mmHg 96%
    17:00 +18°C° 6 mm 3 mps 728 mmHg 96%
    18:00 +18°C° 6 mm 3 mps 728 mmHg 96%
    19:00 +18°C° 3.6 mm 3 mps 728 mmHg 95%
    20:00 +18°C° 3.6 mm 3 mps 728 mmHg 95%
    21:00 +18°C° 3.6 mm 3 mps 728 mmHg 94%
    22:00 +18°C° 1.4 mm 3 mps 727 mmHg 95%
    23:00 +17°C° 1.4 mm 3 mps 727 mmHg 95%

    30 September, Sunday

    Time Temperature Precipitation Wind Pressure Humidity
    00:00 +17°C° 1.4 mm 2 mps 726 mmHg 95%
    01:00 +18°C° 0.8 mm 2 mps 725 mmHg 95%
    02:00 +18°C° 0.8 mm 2 mps 725 mmHg 95%
    03:00 +18°C° 0.8 mm 2 mps 725 mmHg 95%
    04:00 +18°C° 0.7 mm 2 mps 724 mmHg 96%
    05:00 +19°C° 0.7 mm 2 mps 724 mmHg 96%
    06:00 +19°C° 0.7 mm 2 mps 723 mmHg 96%
    07:00 +19°C° 0.6 mm 3 mps 722 mmHg 95%
    08:00 +20°C° 0.6 mm 3 mps 722 mmHg 95%
    09:00 +20°C° 0.6 mm 3 mps 721 mmHg 94%
    10:00 +21°C° 0.6 mm 3 mps 720 mmHg 94%
    11:00 +21°C° 0.6 mm 3 mps 719 mmHg 94%
    12:00 +22°C° 0.6 mm 4 mps 718 mmHg 93%
    13:00 +22°C° 1.8 mm 5 mps 716 mmHg 93%
    14:00 +22°C° 1.8 mm 6 mps 715 mmHg 92%
    15:00 +23°C° 1.8 mm 7 mps 713 mmHg 91%
    16:00 +23°C° 9 mm 9 mps 708 mmHg 91%
    17:00 +23°C° 9 mm 10 mps 704 mmHg 91%
    18:00 +23°C° 9 mm 12 mps 699 mmHg 91%
    19:00 +23°C° 15.6 mm 14 mps 697 mmHg 91%
    20:00 +23°C° 15.6 mm 15 mps 695 mmHg 90%
    21:00 +23°C° 15.6 mm 17 mps 693 mmHg 90%
    22:00 +22°C° 1.4 mm 14 mps 698 mmHg 91%
    23:00 +22°C° 1.4 mm 10 mps 703 mmHg 92%
    Show more